Wind_Speed
12 13 14 15 16 15 15 15 14 15 15 15 15 16 17 17 18 19 19 20 21 21 22 23 23 22 21 21 21 20 20 20 20 19 17 15 14 13 12 10 9 7 7 7
12 12 13 14 15 16 15 15 14 14 14 14 15 15 16 16 17 18 19 19 20 21 22 22 22 23 22 22 22 21 21 21 20 19 18 17 17 15 14 12 11 9 8 8
12 12 12 13 15 15 15 14 14 14 14 14 14 14 15 16 17 17 18 19 20 21 21 22 22 22 22 22 22 22 22 21 21 20 19 18 18 18 17 16 14 12 11 10
12 13 13 13 13 14 15 14 14 14 14 14 14 14 15 15 16 16 17 18 18 19 20 21 21 22 22 22 22 22 22 22 21 21 20 20 19 19 19 18 16 14 13 11
10 12 12 12 12 12 13 13 13 13 13 13 13 13 14 14 16 16 16 17 17 18 19 20 21 21 22 22 22 22 22 22 22 22 22 21 20 20 20 19 18 16 15 13
9 10 11 11 11 11 12 12 13 13 12 12 12 13 13 14 15 15 16 16 16 17 17 18 19 20 21 22 22 22 22 23 23 23 22 22 22 22 22 21 19 18 17 15
8 8 9 10 10 11 11 11 12 12 12 12 12 12 13 13 14 15 15 15 16 16 16 17 18 19 20 21 22 22 22 23 24 24 24 23 23 23 23 22 21 20 19 17
9 8 8 9 9 9 10 10 10 11 11 12 12 12 13 13 14 14 15 15 15 15 15 16 17 18 18 19 21 22 22 23 24 24 24 24 24 24 24 23 23 22 20 19
10 10 10 9 9 9 9 9 9 10 10 11 11 12 13 13 13 14 14 14 14 14 14 15 15 16 17 18 19 21 21 22 23 24 24 25 24 25 24 24 24 23 22 21
13 12 12 12 11 11 10 10 10 10 10 10 11 11 12 12 12 13 13 13 13 13 13 14 14 15 15 16 18 19 20 21 22 23 23 24 24 25 25 25 24 24 23 22
15 15 14 14 13 13 13 12 12 11 11 10 11 11 11 11 11 12 12 12 12 12 13 13 13 13 14 14 15 16 18 19 20 21 22 23 24 24 24 25 24 24 24 23
18 17 17 16 15 15 15 14 14 13 13 12 12 11 11 11 11 11 11 12 12 12 12 12 12 12 12 12 13 13 15 16 17 18 20 21 22 23 23 24 24 24 24 23
22 21 20 19 18 18 18 17 16 16 15 14 14 13 12 12 11 11 11 11 11 11 11 11 11 11 11 11 11 12 12 13 14 15 16 18 19 20 21 22 22 22 22 22
26 24 23 23 22 21 21 20 19 18 17 17 16 15 15 14 13 13 12 12 12 11 11 11 11 10 10 10 10 11 11 11 12 12 13 14 15 16 17 18 19 20 20 20
30 28 27 26 26 26 25 24 23 22 21 19 18 18 17 16 16 15 14 14 13 12 11 11 10 10 10 10 10 10 10 10 10 10 11 11 11 12 13 14 15 16 17 17
34 33 32 31 30 30 29 28 27 25 24 23 22 21 20 19 18 18 17 16 15 14 13 12 12 11 10 10 10 9 9 9 9 9 9 9 9 10 10 11 11 12 13 13
38 37 37 36 35 34 33 32 31 30 28 27 26 24 23 22 21 20 20 19 18 17 16 15 14 14 13 12 11 10 10 10 9 9 8 8 8 8 8 8 9 9 10 10
43 42 41 41 40 39 37 36 35 34 33 32 30 28 26 25 24 24 23 22 21 20 20 19 18 17 16 14 13 12 12 11 11 10 10 9 9 8 8 8 8 8 8 8
48 47 47 46 45 44 43 41 40 39 38 37 35 33 31 30 28 27 26 25 23 23 23 22 21 20 19 18 17 16 15 14 13 12 12 11 10 10 9 9 8 8 8 8
51 52 52 51 50 49 48 47 45 44 43 42 40 38 36 34 33 32 30 28 26 27 27 25 24 23 22 21 20 19 18 17 16 15 15 14 13 12 12 11 10 10 9 9
55 55 56 57 56 55 54 52 51 49 48 47 45 43 41 40 39 37 35 32 30 31 30 28 27 27 26 25 24 23 21 20 19 18 17 17 16 15 14 14 13 13 12 12
57 58 59 60 60 60 59 58 57 55 54 52 50 49 47 45 43 42 40 37 35 35 34 32 31 30 30 28 27 26 25 24 23 22 21 20 19 19 18 17 16 16 15 15
59 60 60 60 62 62 63 63 62 61 59 58 56 54 53 51 49 47 45 42 41 40 38 36 35 34 34 32 31 30 29 28 27 26 25 24 23 22 22 21 20 19 18 18
62 62 62 62 62 63 65 66 66 66 65 63 61 59 58 56 55 53 51 49 47 45 43 40 39 39 38 37 35 34 33 32 31 30 29 28 27 26 25 24 24 23 23 22
62 63 63 64 63 64 64 65 68 69 69 68 66 64 62 61 60 58 56 55 52 50 48 46 45 44 43 41 40 38 37 36 35 34 33 32 31 30 29 28 27 27 26 26
63 64 64 64 64 64 64 65 66 69 71 72 70 69 67 65 64 62 61 59 58 56 54 52 51 49 48 46 45 44 42 41 40 38 37 37 35 34 33 33 32 31 30 30
65 65 65 65 65 64 64 64 64 66 69 71 73 73 72 70 68 66 65 64 62 61 59 58 56 55 53 52 50 49 48 46 45 43 42 41 40 39 38 37 37 36 35 35
Wind_Direction
37 35 33 32 32 31 30 31 33 35 36 36 38 38 37 39 40 40 39 37 35 34 35 36 37 38 37 35 35 34 33 33 33 34 34 33 29 24 18 12 3 347 328 308
39 38 36 34 33 32 33 34 35 35 37 37 38 37 37 36 35 35 34 33 33 34 36 37 38 38 38 37 37 36 35 34 34 34 34 33 29 26 22 15 8 357 343 327
38 38 37 35 32 32 32 33 33 34 36 36 37 36 33 32 32 32 32 33 34 34 35 35 35 36 36 35 34 34 33 32 32 31 30 28 26 23 21 17 12 5 357 347
32 35 36 32 30 29 30 31 31 32 32 33 32 31 31 31 31 30 30 30 30 31 32 32 33 33 33 33 32 32 31 31 30 29 27 25 24 22 19 16 14 11 4 357
21 27 31 29 26 25 25 26 27 27 27 28 28 28 29 28 28 28 28 27 27 28 29 29 30 30 29 30 30 30 29 29 28 27 26 25 24 22 20 18 17 14 11 7
7 13 19 22 21 22 23 25 24 26 25 24 23 23 22 21 22 23 24 24 24 25 25 26 27 27 28 28 29 29 29 28 27 26 25 25 24 22 20 20 20 19 18 17
343 355 4 8 11 14 16 19 21 23 22 21 20 18 16 15 15 17 18 20 21 22 23 24 24 26 27 28 29 29 29 28 28 27 27 26 25 24 24 25 25 26 27 28
316 327 339 343 350 358 3 6 8 11 12 14 14 14 12 12 13 14 15 17 19 20 21 22 23 25 26 27 28 28 29 29 29 29 29 28 28 28 29 31 32 33 35 37
303 308 312 319 324 329 337 346 351 354 356 359 2 4 6 8 9 10 12 14 16 17 19 20 21 22 24 26 26 27 28 29 29 30 30 30 31 32 33 35 37 39 41 43
292 294 298 301 304 309 312 318 327 333 339 343 348 352 356 358 1 4 6 9 11 12 13 15 16 18 20 22 24 26 27 28 29 30 31 33 34 35 36 38 40 42 44 47
283 285 288 291 294 297 300 303 306 311 318 325 330 335 340 345 349 353 356 359 2 5 8 9 10 11 14 17 20 23 25 28 29 31 32 34 36 37 39 40 42 44 47 49
276 279 281 283 286 288 291 293 296 298 301 306 312 318 323 329 334 339 343 348 352 356 359 2 4 5 7 10 14 17 21 24 27 29 32 34 36 38 40 42 44 46 48 51
271 272 275 277 279 281 283 285 287 289 291 294 297 302 306 310 315 320 325 331 337 341 346 351 356 359 2 4 7 11 14 17 21 25 28 31 33 36 38 41 44 46 48 50
268 269 271 273 274 276 277 279 280 281 283 285 289 291 294 297 300 304 309 313 318 323 328 333 338 343 348 353 356 0 5 9 13 16 20 24 28 31 34 37 40 44 46 48
270 271 270 270 271 272 273 275 276 277 278 279 281 283 285 287 290 292 295 299 303 307 312 317 321 326 332 336 342 347 352 356 1 6 10 14 18 22 26 30 34 38 42 45
269 270 270 269 269 270 271 272 273 274 274 275 275 276 278 280 282 283 285 286 289 292 296 300 304 309 314 319 324 329 334 340 343 348 354 359 4 8 12 18 23 27 32 36
268 268 269 269 268 268 269 269 270 270 271 271 271 271 273 274 275 276 277 278 280 282 284 287 289 293 297 301 305 309 313 319 325 329 332 338 343 347 353 358 3 9 15 21
266 266 267 267 267 267 267 267 268 269 269 269 269 269 269 269 268 270 271 273 274 275 276 278 280 281 283 287 290 293 296 301 305 310 313 317 321 326 331 334 340 346 352 357
263 264 265 265 266 266 266 266 265 266 267 267 267 267 266 266 266 266 267 267 268 269 270 271 273 274 275 277 279 282 284 286 289 293 297 300 302 305 309 314 317 320 325 331
262 262 263 263 264 264 264 264 264 264 264 264 264 264 264 264 263 263 263 264 264 265 266 268 268 269 269 271 272 274 276 278 280 282 284 286 288 291 293 295 298 301 304 306
261 260 260 261 261 262 262 261 261 261 261 262 262 262 262 261 262 262 262 262 261 261 262 263 264 265 265 266 267 269 270 272 274 275 277 278 280 282 285 286 287 289 290 291
263 261 259 259 259 259 259 259 259 259 259 259 259 259 259 259 260 260 260 259 257 258 259 260 260 261 262 263 263 264 266 267 269 270 272 273 274 276 278 280 282 283 284 284
267 264 261 259 257 257 256 256 256 257 256 256 256 256 257 257 257 258 258 257 256 256 256 256 257 258 259 260 261 262 263 264 265 266 268 269 270 272 273 275 276 278 279 280
269 267 265 263 260 257 255 254 254 254 254 254 254 254 254 254 255 255 256 255 255 255 255 255 255 255 257 258 259 260 261 261 262 263 265 266 268 269 271 272 273 275 276 277
271 270 268 266 263 260 257 255 253 251 251 251 251 251 252 252 252 252 253 253 253 253 253 253 252 253 254 256 256 257 258 259 260 261 263 264 265 267 268 270 271 273 274 275
273 272 271 269 267 264 260 257 254 252 251 250 249 249 249 249 250 250 251 251 251 252 252 251 251 252 252 253 254 255 256 257 258 259 261 262 264 265 267 268 269 270 271 273
273 272 272 270 269 266 263 261 257 253 251 250 249 247 247 247 247 248 248 249 249 250 250 250 251 251 251 252 253 254 255 256 257 258 259 261 262 263 264 266 267 269 270 271
Height
5885 5883 5880 5878 5875 5872 5870 5867 5864 5862 5859 5856 5853 5850 5847 5844 5840 5837 5834 5830 5827 5823 5819 5815 5811 5807 5803 5800 5796 5793 5790 5786 5783 5780 5777 5775 5773 5770 5768 5766 5765 5763 5762 5762
5887 5884 5882 5880 5877 5875 5872 5869 5867 5864 5862 5859 5856 5853 5851 5847 5844 5841 5838 5834 5831 5827 5823 5819 5815 5811 5808 5804 5800 5797 5794 5790 5787 5784 5781 5778 5775 5772 5770 5767 5765 5763 5761 5760
5888 5886 5884 5882 5880 5877 5874 5872 5869 5867 5865 5862 5859 5857 5854 5851 5848 5844 5841 5838 5834 5831 5827 5824 5820 5816 5812 5808 5805 5801 5798 5794 5791 5787 5784 5781 5777 5774 5771 5768 5765 5763 5761 5759
5889 5888 5885 5886 5881 5879 5877 5874 5872 5869 5867 5864 5862 5859 5856 5854 5851 5848 5844 5841 5838 5835 5831 5827 5824 5820 5816 5812 5809 5805 5801 5798 5794 5790 5787 5783 5780 5776 5772 5769 5766 5763 5760 5758
5890 5888 5887 5886 5883 5881 5879 5877 5874 5871 5869 5866 5864 5862 5859 5856 5853 5850 5847 5844 5841 5838 5835 5831 5827 5824 5820 5816 5812 5809 5805 5801 5797 5793 5789 5786 5782 5778 5774 5770 5767 5763 5760 5757
5891 5889 5888 5888 5885 5882 5881 5879 5876 5873 5871 5868 5866 5864 5862 5859 5856 5853 5850 5847 5844 5841 5838 5834 5831 5827 5824 5820 5816 5812 5808 5804 5800 5796 5792 5788 5784 5780 5776 5772 5768 5764 5760 5757
5891 5890 5889 5888 5885 5884 5883 5882 5877 5875 5872 5870 5868 5866 5864 5861 5858 5855 5852 5849 5846 5843 5840 5837 5834 5831 5827 5823 5820 5816 5812 5808 5804 5799 5795 5791 5787 5783 5778 5774 5770 5766 5762 5759
5891 5890 5891 5887 5885 5885 5883 5880 5878 5876 5874 5872 5869 5867 5865 5862 5859 5857 5854 5851 5848 5846 5843 5840 5837 5834 5830 5827 5823 5819 5815 5811 5807 5803 5799 5795 5790 5786 5782 5777 5773 5769 5766 5762
5890 5891 5888 5886 5885 5884 5882 5880 5878 5877 5875 5872 5870 5868 5866 5863 5861 5858 5856 5853 5850 5848 5845 5842 5839 5836 5833 5830 5826 5823 5819 5815 5811 5807 5803 5799 5794 5790 5786 5782 5778 5774 5770 5767
5887 5887 5886 5885 5884 5882 5881 5880 5878 5876 5875 5873 5871 5869 5866 5864 5862 5859 5857 5854 5852 5849 5847 5844 5841 5838 5835 5832 5829 5826 5822 5819 5815 5811 5807 5803 5799 5795 5791 5787 5783 5779 5775 5772
5884 5883 5883 5882 5881 5880 5879 5878 5877 5875 5873 5872 5870 5868 5866 5864 5862 5860 5858 5855 5853 5850 5848 5845 5843 5840 5837 5835 5832 5829 5826 5822 5819 5815 5812 5808 5804 5800 5796 5792 5788 5785 5781 5778
5880 5879 5879 5879 5878 5877 5876 5875 5874 5873 5872 5870 5869 5867 5865 5863 5862 5860 5858 5855 5853 5851 5848 5846 5844 5841 5839 5836 5833 5831 5828 5825 5822 5819 5815 5812 5808 5805 5801 5797 5794 5790 5787 5784
5874 5874 5874 5874 5873 5873 5872 5871 5870 5869 5868 5867 5866 5865 5863 5862 5860 5859 5857 5855 5853 5851 5848 5846 5844 5842 5839 5837 5835 5832 5830 5827 5824 5822 5819 5816 5813 5809 5806 5803 5799 5796 5792 5789
5867 5868 5869 5868 5868 5868 5867 5866 5866 5865 5864 5863 5862 5861 5860 5859 5858 5856 5855 5853 5851 5850 5848 5846 5844 5842 5839 5837 5835 5833 5831 5828 5826 5823 5821 5818 5816 5813 5810 5807 5804 5801 5798 5795
5861 5862 5862 5862 5862 5861 5861 5861 5860 5860 5859 5859 5858 5857 5856 5855 5854 5853 5852 5851 5849 5847 5846 5844 5842 5841 5839 5837 5835 5833 5831 5829 5827 5824 5822 5820 5818 5815 5813 5810 5808 5805 5802 5800
5853 5854 5854 5855 5855 5855 5855 5854 5854 5854 5853 5853 5852 5851 5851 5850 5849 5849 5848 5847 5846 5844 5843 5842 5840 5839 5837 5835 5834 5832 5830 5828 5826 5825 5823 5821 5819 5817 5815 5813 5810 5808 5806 5804
5844 5845 5845 5845 5846 5846 5846 5847 5846 5846 5846 5846 5845 5845 5844 5844 5843 5843 5842 5841 5841 5840 5839 5838 5837 5836 5834 5833 5831 5830 5828 5827 5825 5824 5822 5820 5819 5817 5815 5813 5812 5810 5808 5806
5832 5833 5834 5835 5835 5836 5837 5837 5837 5837 5837 5837 5837 5837 5837 5837 5836 5836 5835 5835 5835 5834 5833 5833 5832 5831 5830 5829 5828 5827 5826 5824 5823 5822 5820 5819 5817 5816 5814 5813 5811 5810 5808 5807
5820 5820 5821 5822 5823 5824 5825 5826 5826 5827 5827 5827 5828 5828 5828 5828 5828 5828 5828 5828 5828 5827 5827 5826 5826 5825 5825 5824 5823 5823 5822 5821 5820 5819 5817 5816 5815 5814 5813 5811 5810 5809 5808 5806
5805 5806 5806 5807 5808 5810 5811 5812 5813 5814 5815 5816 5816 5818 5818 5818 5818 5818 5818 5819 5820 5819 5819 5819 5818 5818 5818 5818 5817 5817 5816 5816 5815 5814 5813 5812 5811 5810 5809 5809 5808 5807 5806 5805
5788 5789 5790 5791 5792 5793 5795 5796 5798 5800 5801 5802 5804 5805 5806 5807 5807 5807 5808 5810 5810 5809 5809 5810 5810 5810 5810 5810 5810 5810 5810 5809 5809 5809 5808 5807 5807 5806 5805 5804 5804 5803 5802 5801
5768 5769 5771 5772 5773 5775 5776 5778 5780 5783 5785 5787 5789 5790 5792 5793 5794 5795 5797 5798 5798 5798 5799 5800 5800 5801 5801 5801 5801 5802 5802 5802 5802 5802 5802 5801 5801 5801 5800 5799 5799 5798 5798 5797
5746 5748 5749 5751 5753 5755 5757 5758 5760 5763 5766 5769 5771 5774 5776 5778 5779 5781 5784 5785 5785 5786 5787 5789 5789 5789 5790 5791 5792 5792 5793 5793 5794 5794 5794 5794 5794 5794 5793 5793 5793 5792 5792 5791
5725 5725 5727 5729 5731 5733 5735 5737 5739 5742 5745 5748 5752 5755 5757 5760 5762 5765 5768 5769 5771 5773 5774 5776 5777 5777 5778 5779 5781 5782 5782 5783 5784 5784 5785 5785 5785 5785 5786 5786 5785 5785 5785 5785
5704 5704 5705 5706 5708 5710 5713 5715 5717 5719 5722 5726 5730 5734 5737 5740 5743 5747 5749 5752 5755 5757 5759 5761 5762 5763 5765 5766 5768 5769 5771 5772 5773 5774 5775 5775 5776 5776 5776 5777 5777 5777 5777 5777
5683 5682 5682 5683 5684 5686 5688 5691 5694 5696 5700 5703 5707 5710 5715 5719 5723 5727 5730 5733 5737 5740 5743 5745 5746 5748 5750 5752 5754 5756 5757 5759 5760 5762 5763 5764 5765 5765 5766 5766 5767 5767 5767 5767
5661 5660 5660 5660 5661 5663 5664 5667 5670 5672 5675 5678 5682 5686 5691 5696 5701 5705 5709 5713 5717 5721 5724 5727 5729 5732 5734 5736 5738 5741 5742 5744 5746 5748 5749 5751 5752 5753 5754 5754 5755 5756 5756 5756